Volver al catálogo

STARLINK-31466

ActivoComunicacionesVLEO
NORAD 59420·PAYLOAD·🇺🇸 United States

Lanzado Apr 5, 2024 desde Cape Canaveral Space Force Station

Loading…

Próximos Pases (próximas 24 horas)

TLE

ActualizadoSource: CelesTrak SupGP

Época: Sep 15, 2026, 02:39 UTC

1 59420C 24064Y   26258.11090278 -.00022949  00000+0 -83100-3 0  2587
2 59420  43.0042  66.7780 0001762 271.5148 358.9614 15.27597569    16

Sigue STARLINK-31466 en tiempo real con AllMySat

Download on the App Store